weather.gov     
National Weather Service

Regional Weather Roundup
NWS Homepage
This page is being discontinued on March 12, 2014.
The same data is available at this site. Please update your bookmarks.
Thank you, and we apologize for the inconvenience.
Please send an email to SR-SRH.Webmaster@noaa.gov with any concerns.


Current Version
Previous Version:    01  02  03  04  05  06  07  08  09  10  11  12  13  14  15  16  17  18  19  20  21  22  23  24  25  26  27  28  29  30  
   31  32  33  34  35  36  37  38  39  40  41  42  43  44  45  46  47  48  49  50  51  52  53  
[Printable]
518
ASUS45 KABQ 261010
RWRNM
WEATHER ROUNDUP FOR NEW MEXICO
NATIONAL WEATHER SERVICE ALBUQUERQUE NM
300 AM MST MON JAN 26 2015

NOTE: "FAIR" MEANS FEW OR NO CLOUDS BELOW 12,000 FEET AGL WITH NO
       SIGNIFICANT WEATHER OR OBSTRUCTIONS TO VISION.

      THIS PRODUCT IS RELEASED AS TWO VERSIONS.  ONE VERSION NEAR
      THE TOP OF THE HOUR CONTAINING PRELIMINARY DATA FROM ALBUQUERQUE
      AND OTHER STATIONS.  A FINAL VERSION WITH ADDITIONAL DATA IS
      ISSUED ABOUT 10 MINUTES AFTER THE HOUR.

NMZ501-503-504-510>518-261100-
NORTHWEST PLATEAU/NORTHCENTRAL MOUNTAINS

CITY           SKY/WX    TMP DP  RH WIND       PRES   REMARKS
FARMINGTON     CLEAR     27  20  75 E13       30.36S WCI  16
LOS ALAMOS     CLEAR     35  22  58 CALM      30.39S
SANTA FE       PTCLDY    28  22  78 N10       30.35S WCI  19
TAOS           PTCLDY    27  19  74 E5        30.40S WCI  21
ANGEL FIRE     FAIR      12  10  89 CALM      30.43R

$$
NMZ402-403-502-505>509-261100-
WESTCENTRAL MOUNTAINS/SOUTHWEST MOUNTAINS

CITY           SKY/WX    TMP DP  RH WIND       PRES   REMARKS
GALLUP         CLEAR     25  20  81 E5        30.37R WCI  19
GRANTS         CLEAR     24  21  90 NW14      30.40S WCI  11
SILVER CITY    MOCLDY    32  23  69 N12       30.33S WCI  23

$$
NMZ407-409-411-412-261100-
SOUTHERN DESERTS

CITY           SKY/WX    TMP DP  RH WIND       PRES   REMARKS
LORDSBURG      FAIR      32  27  80 S5        30.28S WCI  27
DEMING         CLOUDY    31  25  78 N5        30.30S WCI  26
LAS CRUCES     CLOUDY    34  28  80 NE3       30.31S
HOLLOMAN AFB   MOCLDY    30  26  85 E7        30.31S WCI  23
ALAMOGORDO     PTCLDY    32  25  74 SE7       30.33S WCI  26
T OR C         PTCLDY    34  22  61 NW6       30.31R WCI  29

$$
NMZ519>523-261100-
CENTRAL VALLEYS/CENTRAL HIGHLANDS

CITY           SKY/WX    TMP DP  RH WIND       PRES   REMARKS
ALBUQUERQUE    CLEAR     35  25  66 N8        30.36R WCI  29
DOUBLE EAGLE   CLEAR     28  21  74 CALM      30.36R
MORIARTY ARPT  FAIR      22  19  90 NE3       30.37R
CLINES CORNERS PTCLDY    32  20  61 NW12      30.32R WCI  23
BELEN          FAIR      26  24  91 W7        30.35S WCI  19
SOCORRO        FAIR      32  26  78 NW5       30.34S WCI  27

$$
NMZ524>526-539-540-261100-
SOUTHCENTRAL MOUNTAINS

CITY           SKY/WX    TMP DP  RH WIND       PRES   REMARKS
RUIDOSO        CLEAR     32  18  55 W6        30.37R WCI  26

$$
NMZ527>531-261100-
NORTHEAST HIGHLANDS/NORTHEAST PLAINS

CITY           SKY/WX    TMP DP  RH WIND       PRES   REMARKS
LAS VEGAS      PTCLDY    30  20  66 NW7       30.33S WCI  23
RATON          PTCLDY    25  21  85 NE8       30.32S WCI  16
CLAYTON        PTCLDY    44  23  43 W18       30.23F

$$
NMZ532>537-261100-
EASTCENTRAL PLAINS

CITY           SKY/WX    TMP DP  RH WIND       PRES   REMARKS
TUCUMCARI      PTCLDY    34  27  75 W8        30.27S WCI  27
CANNON AFB     PTCLDY    37  27  68 NW10      30.26F WCI  29
CLOVIS AIRPORT PTCLDY    34  27  75 NW12      30.26F WCI  25

$$
NMZ028-029-538-261100-
SOUTHEAST PLAINS

CITY           SKY/WX    TMP DP  RH WIND       PRES   REMARKS
ROSWELL        CLEAR     32  27  81 NW7       30.30S WCI  26
ARTESIA        CLEAR     34  32  93 W9        30.31S WCI  26
CARLSBAD       CLEAR     33  27  78 W6        30.29R WCI  28
HOBBS          PTCLDY    34  28  80 W9        30.28R WCI  26


$$




U.S. Dept. of Commerce
NOAA National Weather Service
1325 East West Highway
Silver Spring, MD 20910
E-mail: w-nws.webmaster@noaa.gov
Page last modified: May 16, 2007
NATIONAL WEATHER SERVICE: for Safety, for Work, for Fun - FOR LIFE